カタログに戻る

COSMOS 624

運用中軍事LEO
NORAD 6992·PAYLOAD·🇷🇺 Russia

打ち上げ Dec 19, 1973 から Plesetsk Cosmodrome

Loading…

次のパス (今後24時間)

TLE

最新Source: Space-Track

元期: Sep 14, 2026, 08:22 UTC

1 06992U 73104H   26257.34869890 -.00000024  00000-0 -44958-4 0  9992
2 06992  74.0315  26.4609 0085635  63.2944 324.4688 12.61292377428133

AllMySatでCOSMOS 624をリアルタイム追跡

Download on the App Store